Погода в Венгерле

Индия     15°51′29″N   73°38′13″E
темп.,
°C
ветер,
м/с
пор.,
м/с
влажн.,
%
обл.,
%
осадки,
мм/ч
давл.,
гПа
погр.,
м
17 октября, вс
вс1723:30+25всв1187100 0.3 100418
02:30+24ссв1187100 0.0 100230
05:30+24св118799 0.0 100320
08:30+26всв1180100 0.0 1007120
11:30+30зюз226192 0.0 1006962
14:30+30з436226 0.0 10041195
17:30+28зсз247442 0.0 1005239
20:30+26ссз12827 0.0 100757
18 октября, пн
пн1823:30+25ссз118419 0.1 100740
02:30+24ссз128865 0.5 100652
05:30+24ссз12885 0.9 100755
08:30+27сз357927 0.4 1009730
11:30+30зсз566210 0.8 10091390
14:30+30зсз666117 0.1 10071466
17:30+27сз46752 0.1 1008443
20:30+25ссз24865 0.2 1010121
19 октября, вт
вт1923:30+24с2288100 0.4 101166
02:30+23ссв2292100 0.1 100956
05:30+25ссз1286100 0.6 101050
08:30+26сз2483100 1.4 1012336
11:30+28сз457162 2.3 10111041
14:30+28сз567085 0.6 10091105
17:30+26сз478110 1.0 1010503
20:30+24ссз248927 0.1 1012110
20 октября, ср
ср2023:30+23ссв1292100 0.2 101251
02:30+23ссв119499 0.0 101036
05:30+22св119439 0.0 101131
08:30+25ссв23826 0.0 1013259
11:30+30сз22605 0.0 10121141
14:30+30з536513 0.1 1009928
17:30+26сз4679100 0.4 1010372
20:30+25с2487100 0.1 1012110
21 октября, чт
чт2123:30+24с2390100 0.2 101295
02:30+23ссв129288 0.0 101147
05:30+22ссв229399 0.0 101245
08:30+26ссв128099 0.0 1014267
11:30+30сз126192 0.0 1012876
14:30+31з43625 0.0 1009878
17:30+27зсз3577100 0.0 1010310
20:30+25с248591 0.0 1012106